UAL517 KORD-KLAX

Flight info

Callsign UAL517
Flight time 3h 49m
Altitude 34000
Route ORD OLINN OREOS OBENE OGALE KP66C YESUS KD66Y FONTO KD60U KD57S CHESZ Q88 HAKMN BIGBR3
Aircraft B738/M-VGDW/C

Departure

Time 2026-04-23 11:19
Airport Chicago O'Hare International Airport (KORD)

Arrival

Time 2026-04-23 15:09
Airport Los Angeles International Airport (KLAX)
Time Latitude Longitude Altitude Speed Heading
2026-04-23 10:39 41.98007 -87.90718 676 ft 0 kts 99°
2026-04-23 11:10 41.98008 -87.90725 676 ft 2 kts 98°
2026-04-23 11:10 41.98009 -87.90750 676 ft 3 kts 85°
2026-04-23 11:10 41.98005 -87.90776 676 ft 3 kts 62°
2026-04-23 11:11 41.97994 -87.90794 676 ft 3 kts 24°
2026-04-23 11:11 41.97979 -87.90800 676 ft 2 kts
2026-04-23 11:11 41.97969 -87.90802 676 ft 0 kts
2026-04-23 11:13 41.97998 -87.90796 676 ft 7 kts
2026-04-23 11:14 41.98047 -87.90785 676 ft 7 kts
2026-04-23 11:14 41.98100 -87.90779 676 ft 9 kts 358°
2026-04-23 11:14 41.98163 -87.90787 676 ft 9 kts 354°
2026-04-23 11:14 41.98223 -87.90795 676 ft 9 kts 354°
2026-04-23 11:15 41.98277 -87.90780 676 ft 8 kts 47°
2026-04-23 11:15 41.98289 -87.90709 676 ft 8 kts 90°
2026-04-23 11:15 41.98289 -87.90630 676 ft 10 kts 90°
2026-04-23 11:15 41.98289 -87.90525 676 ft 14 kts 90°
2026-04-23 11:16 41.98289 -87.90371 676 ft 17 kts 89°
2026-04-23 11:16 41.98289 -87.90216 676 ft 16 kts 90°
2026-04-23 11:16 41.98289 -87.90069 676 ft 15 kts 90°
2026-04-23 11:16 41.98290 -87.89931 676 ft 14 kts 90°
2026-04-23 11:17 41.98290 -87.89802 676 ft 13 kts 90°
2026-04-23 11:17 41.98290 -87.89681 676 ft 13 kts 90°
2026-04-23 11:17 41.98290 -87.89566 676 ft 12 kts 90°
2026-04-23 11:17 41.98338 -87.89490 676 ft 12 kts
2026-04-23 11:18 41.98390 -87.89520 676 ft 6 kts 275°
2026-04-23 11:18 41.98390 -87.89532 676 ft 0 kts 270°
2026-04-23 11:18 41.98390 -87.89560 676 ft 13 kts 270°
2026-04-23 11:18 41.98390 -87.90013 676 ft 85 kts 270°
2026-04-23 11:19 41.98389 -87.91110 676 ft 148 kts 270°
2026-04-23 11:19 41.98392 -87.92717 871 ft 185 kts 272°
2026-04-23 11:19 41.98374 -87.94428 1791 ft 180 kts 272°
2026-04-23 11:19 41.98371 -87.96097 2575 ft 178 kts 271°
2026-04-23 11:20 41.98382 -87.97823 3075 ft 195 kts 271°
2026-04-23 11:20 41.98367 -87.99756 3379 ft 219 kts 270°
2026-04-23 11:20 41.98345 -88.01928 3670 ft 245 kts 270°
2026-04-23 11:20 41.98261 -88.04271 4274 ft 256 kts 266°
2026-04-23 11:21 41.98074 -88.06714 4898 ft 268 kts 264°
2026-04-23 11:21 41.97836 -88.09216 5717 ft 271 kts 264°
2026-04-23 11:21 41.97595 -88.11736 6599 ft 273 kts 264°
2026-04-23 11:21 41.97355 -88.14283 7386 ft 276 kts 264°
2026-04-23 11:22 41.97116 -88.16860 8172 ft 280 kts 264°
2026-04-23 11:22 41.96877 -88.19466 8947 ft 283 kts 264°
2026-04-23 11:22 41.96636 -88.22094 9740 ft 284 kts 264°
2026-04-23 11:22 41.96395 -88.24740 10507 ft 287 kts 265°
2026-04-23 11:23 41.96149 -88.27445 11081 ft 298 kts 265°
2026-04-23 11:23 41.95891 -88.30294 11382 ft 317 kts 265°
2026-04-23 11:23 41.95616 -88.33327 11645 ft 336 kts 266°
2026-04-23 11:23 41.95327 -88.36527 11914 ft 354 kts 266°
2026-04-23 11:24 41.95050 -88.39861 12400 ft 362 kts 267°
2026-04-23 11:24 41.94784 -88.43238 13083 ft 365 kts 266°
2026-04-23 11:24 41.94495 -88.46639 13766 ft 368 kts 266°
2026-04-23 11:24 41.94190 -88.50068 14435 ft 371 kts 266°
2026-04-23 11:25 41.93880 -88.53471 15088 ft 374 kts 266°
2026-04-23 11:25 41.93556 -88.56996 15747 ft 376 kts 266°
2026-04-23 11:25 41.93235 -88.60448 16364 ft 379 kts 266°
2026-04-23 11:25 41.92907 -88.63974 16974 ft 382 kts 266°
2026-04-23 11:26 41.92576 -88.67519 17572 ft 384 kts 266°
2026-04-23 11:26 41.92242 -88.71087 18155 ft 387 kts 266°
2026-04-23 11:26 41.91905 -88.74692 18694 ft 390 kts 266°
2026-04-23 11:26 41.91565 -88.78323 19217 ft 394 kts 266°
2026-04-23 11:27 41.91246 -88.81985 19731 ft 396 kts 268°
2026-04-23 11:27 41.91085 -88.85686 20233 ft 398 kts 271°
2026-04-23 11:27 41.91019 -88.89410 20720 ft 401 kts 272°
2026-04-23 11:27 41.90944 -88.93170 21187 ft 405 kts 272°
2026-04-23 11:28 41.90837 -88.96965 21641 ft 408 kts 271°
2026-04-23 11:28 41.90714 -89.00781 22077 ft 411 kts 271°
2026-04-23 11:28 41.90585 -89.04631 22501 ft 414 kts 271°
2026-04-23 11:28 41.90451 -89.08507 22912 ft 417 kts 271°
2026-04-23 11:29 41.90316 -89.12407 23310 ft 420 kts 271°
2026-04-23 11:29 41.90179 -89.16340 23699 ft 423 kts 272°
2026-04-23 11:29 41.90041 -89.20294 24074 ft 426 kts 271°
2026-04-23 11:29 41.89801 -89.24279 24473 ft 430 kts 268°
2026-04-23 11:30 41.89418 -89.28269 24863 ft 433 kts 266°
2026-04-23 11:30 41.89006 -89.32282 25241 ft 435 kts 266°
2026-04-23 11:30 41.88598 -89.36316 25612 ft 437 kts 266°
2026-04-23 11:30 41.88193 -89.40358 25968 ft 439 kts 266°
2026-04-23 11:31 41.87785 -89.44424 26316 ft 440 kts 266°
2026-04-23 11:31 41.87376 -89.48501 26656 ft 442 kts 266°
2026-04-23 11:31 41.86964 -89.52600 26983 ft 444 kts 266°
2026-04-23 11:31 41.86552 -89.56702 27301 ft 446 kts 266°
2026-04-23 11:32 41.86135 -89.60838 27611 ft 447 kts 266°
2026-04-23 11:32 41.85718 -89.64981 27911 ft 449 kts 266°
2026-04-23 11:32 41.85299 -89.69146 28203 ft 451 kts 266°
2026-04-23 11:32 41.84879 -89.73311 28490 ft 453 kts 266°
2026-04-23 11:33 41.84445 -89.77507 28769 ft 454 kts 265°
2026-04-23 11:33 41.84007 -89.81700 29085 ft 455 kts 265°
2026-04-23 11:33 41.83566 -89.85890 29509 ft 452 kts 265°
2026-04-23 11:33 41.83125 -89.90061 29910 ft 451 kts 265°
2026-04-23 11:34 41.82683 -89.94219 30279 ft 450 kts 265°
2026-04-23 11:34 41.82242 -89.98360 30652 ft 449 kts 265°
2026-04-23 11:34 41.81798 -90.02497 31015 ft 447 kts 265°
2026-04-23 11:34 41.81355 -90.06620 31371 ft 446 kts 265°
2026-04-23 11:35 41.80912 -90.10727 31720 ft 445 kts 265°
2026-04-23 11:35 41.80469 -90.14814 32061 ft 444 kts 265°
2026-04-23 11:35 41.80031 -90.18919 32399 ft 442 kts 266°
2026-04-23 11:35 41.79627 -90.22991 32728 ft 441 kts 266°
2026-04-23 11:36 41.79214 -90.27062 33053 ft 440 kts 266°
2026-04-23 11:36 41.78793 -90.31125 33371 ft 439 kts 266°
2026-04-23 11:36 41.78368 -90.35164 33684 ft 438 kts 266°
2026-04-23 11:36 41.77939 -90.39201 33989 ft 437 kts 266°
2026-04-23 11:37 41.77506 -90.43235 34295 ft 436 kts 266°
2026-04-23 11:37 41.77074 -90.47244 34595 ft 435 kts 266°
2026-04-23 11:37 41.76645 -90.51195 34885 ft 434 kts 266°
2026-04-23 11:37 41.76209 -90.55196 35174 ft 433 kts 266°
2026-04-23 11:38 41.75773 -90.59180 35456 ft 432 kts 266°
2026-04-23 11:38 41.75336 -90.63157 35731 ft 431 kts 266°
2026-04-23 11:38 41.74899 -90.67123 35993 ft 430 kts 266°
2026-04-23 11:39 41.74016 -90.75085 36029 ft 433 kts 266°
2026-04-23 11:39 41.73130 -90.83029 36030 ft 430 kts 266°
2026-04-23 11:40 41.72240 -90.90949 36030 ft 430 kts 266°
2026-04-23 11:40 41.71346 -90.98859 36030 ft 431 kts 266°
2026-04-23 11:41 41.70444 -91.06792 36030 ft 431 kts 266°
2026-04-23 11:41 41.69538 -91.14702 36030 ft 431 kts 266°
2026-04-23 11:42 41.68625 -91.22627 36030 ft 431 kts 266°
2026-04-23 11:42 41.67708 -91.30543 36030 ft 431 kts 266°
2026-04-23 11:43 41.66785 -91.38458 36030 ft 431 kts 266°
2026-04-23 11:43 41.65855 -91.46377 36030 ft 431 kts 266°
2026-04-23 11:44 41.64921 -91.54285 36030 ft 431 kts 266°
2026-04-23 11:44 41.63988 -91.62143 36030 ft 431 kts 266°
2026-04-23 11:45 41.63043 -91.70051 36030 ft 431 kts 266°
2026-04-23 11:45 41.62092 -91.77957 36030 ft 431 kts 266°
2026-04-23 11:46 41.61138 -91.85851 36030 ft 431 kts 266°
2026-04-23 11:46 41.60175 -91.93766 36030 ft 431 kts 266°
2026-04-23 11:47 41.59209 -92.01658 36030 ft 431 kts 266°
2026-04-23 11:47 41.58236 -92.09555 36030 ft 431 kts 266°
2026-04-23 11:48 41.57258 -92.17457 36030 ft 431 kts 265°
2026-04-23 11:48 41.56275 -92.25346 36030 ft 431 kts 265°
2026-04-23 11:49 41.55286 -92.33243 36030 ft 431 kts 265°
2026-04-23 11:49 41.54459 -92.39806 36030 ft 431 kts 265°
2026-04-23 11:50 41.53462 -92.47685 36030 ft 431 kts 265°
2026-04-23 11:50 41.52294 -92.56856 36030 ft 431 kts 265°
2026-04-23 11:51 41.51447 -92.63471 36030 ft 431 kts 265°
2026-04-23 11:51 41.50431 -92.71357 36030 ft 431 kts 265°
2026-04-23 11:52 41.49410 -92.79241 36030 ft 431 kts 265°
2026-04-23 11:52 41.48385 -92.87119 36030 ft 431 kts 265°
2026-04-23 11:53 41.47353 -92.94998 36030 ft 431 kts 265°
2026-04-23 11:53 41.46324 -93.02820 36030 ft 431 kts 265°
2026-04-23 11:54 41.45313 -93.10702 36030 ft 431 kts 265°
2026-04-23 11:54 41.44274 -93.18569 36030 ft 431 kts 265°
2026-04-23 11:55 41.43209 -93.26443 36030 ft 432 kts 265°
2026-04-23 11:55 41.42138 -93.34304 36030 ft 432 kts 265°
2026-04-23 11:56 41.41064 -93.42175 36030 ft 432 kts 265°
2026-04-23 11:56 41.40056 -93.50039 36030 ft 429 kts 268°
2026-04-23 11:57 41.39496 -93.57948 36030 ft 428 kts 270°
2026-04-23 11:57 41.38957 -93.65839 36030 ft 428 kts 269°
2026-04-23 11:58 41.38392 -93.73741 36030 ft 428 kts 269°
2026-04-23 11:58 41.37812 -93.81635 36030 ft 429 kts 269°
2026-04-23 11:59 41.37222 -93.89538 36030 ft 429 kts 269°
2026-04-23 11:59 41.36664 -93.97375 36030 ft 428 kts 270°
2026-04-23 12:00 41.36121 -94.05275 36030 ft 428 kts 269°
2026-04-23 12:00 41.35552 -94.13166 36030 ft 428 kts 269°
2026-04-23 12:01 41.34967 -94.21061 36030 ft 429 kts 269°
2026-04-23 12:01 41.34372 -94.28952 36030 ft 429 kts 269°
2026-04-23 12:02 41.33770 -94.36841 36030 ft 429 kts 269°
2026-04-23 12:02 41.33162 -94.44727 36030 ft 429 kts 269°
2026-04-23 12:03 41.32547 -94.52622 36030 ft 429 kts 269°
2026-04-23 12:03 41.31928 -94.60506 36030 ft 429 kts 269°
2026-04-23 12:04 41.31302 -94.68394 36030 ft 429 kts 269°
2026-04-23 12:04 41.30671 -94.76278 36030 ft 429 kts 269°
2026-04-23 12:05 41.30035 -94.84164 36030 ft 429 kts 269°
2026-04-23 12:05 41.29393 -94.92051 36030 ft 429 kts 269°
2026-04-23 12:06 41.28746 -94.99932 36030 ft 429 kts 269°
2026-04-23 12:06 41.27765 -95.11753 36030 ft 429 kts 269°
2026-04-23 12:07 41.27104 -95.19631 36030 ft 429 kts 269°
2026-04-23 12:07 41.26438 -95.27505 36030 ft 429 kts 268°
2026-04-23 12:08 41.25771 -95.35337 36029 ft 429 kts 268°
2026-04-23 12:08 41.25094 -95.43213 36030 ft 429 kts 268°
2026-04-23 12:09 41.24411 -95.51093 36030 ft 429 kts 268°
2026-04-23 12:09 41.23724 -95.58962 36030 ft 429 kts 268°
2026-04-23 12:10 41.23031 -95.66832 36030 ft 429 kts 268°
2026-04-23 12:10 41.22332 -95.74711 36030 ft 429 kts 268°
2026-04-23 12:11 41.21627 -95.82585 36030 ft 429 kts 268°
2026-04-23 12:11 41.20918 -95.90451 36030 ft 429 kts 268°
2026-04-23 12:12 41.20203 -95.98328 36030 ft 429 kts 268°
2026-04-23 12:12 41.19483 -96.06189 36030 ft 429 kts 268°
2026-04-23 12:13 41.18757 -96.14061 36030 ft 429 kts 268°
2026-04-23 12:13 41.18027 -96.21916 36030 ft 429 kts 268°
2026-04-23 12:14 41.17290 -96.29784 36030 ft 429 kts 268°
2026-04-23 12:14 41.16548 -96.37648 36030 ft 429 kts 268°
2026-04-23 12:15 41.15801 -96.45510 36030 ft 429 kts 268°
2026-04-23 12:15 41.15049 -96.53366 36030 ft 429 kts 268°
2026-04-23 12:16 41.14295 -96.61181 36030 ft 429 kts 268°
2026-04-23 12:16 41.13532 -96.69041 36030 ft 430 kts 268°
2026-04-23 12:17 41.12763 -96.76898 36030 ft 430 kts 268°
2026-04-23 12:17 41.11990 -96.84741 36030 ft 430 kts 268°
2026-04-23 12:18 41.11209 -96.92604 36030 ft 430 kts 268°
2026-04-23 12:18 41.10425 -97.00453 36030 ft 430 kts 267°
2026-04-23 12:19 41.09634 -97.08309 36030 ft 430 kts 267°
2026-04-23 12:19 41.08839 -97.16156 36030 ft 430 kts 267°
2026-04-23 12:20 41.08037 -97.24010 36030 ft 430 kts 267°
2026-04-23 12:20 41.07232 -97.31849 36030 ft 430 kts 267°
2026-04-23 12:21 41.06421 -97.39690 36030 ft 430 kts 267°
2026-04-23 12:21 41.05609 -97.47484 36030 ft 430 kts 267°
2026-04-23 12:22 41.04780 -97.55387 36030 ft 430 kts 267°
2026-04-23 12:22 41.03993 -97.63174 36028 ft 430 kts 267°
2026-04-23 12:23 41.03158 -97.71071 36030 ft 430 kts 267°
2026-04-23 12:23 41.02315 -97.78847 36030 ft 430 kts 267°
2026-04-23 12:24 41.01452 -97.86746 36030 ft 430 kts 267°
2026-04-23 12:24 41.00593 -97.94580 36030 ft 430 kts 267°
2026-04-23 12:25 41.00098 -98.02417 36031 ft 425 kts 275°
2026-04-23 12:25 41.00252 -98.10222 36030 ft 424 kts 276°
2026-04-23 12:26 41.00443 -98.17973 36030 ft 424 kts 276°
2026-04-23 12:26 41.00625 -98.25784 36030 ft 424 kts 276°
2026-04-23 12:27 41.00800 -98.33580 36030 ft 424 kts 276°
2026-04-23 12:27 41.00969 -98.41393 36030 ft 424 kts 276°
2026-04-23 12:28 41.01166 -98.49195 36030 ft 424 kts 277°
2026-04-23 12:28 41.01378 -98.56980 36030 ft 424 kts 276°
2026-04-23 12:29 41.01564 -98.64784 36030 ft 424 kts 276°
2026-04-23 12:29 41.01736 -98.72596 36030 ft 424 kts 276°
2026-04-23 12:30 41.01898 -98.80399 36030 ft 424 kts 276°
2026-04-23 12:30 41.02055 -98.88213 36030 ft 424 kts 276°
2026-04-23 12:31 41.02205 -98.96025 36030 ft 424 kts 276°
2026-04-23 12:31 41.02350 -99.03820 36030 ft 424 kts 276°
2026-04-23 12:32 41.02488 -99.11582 36030 ft 424 kts 276°
2026-04-23 12:32 41.02622 -99.19398 36030 ft 424 kts 276°
2026-04-23 12:33 41.02751 -99.27204 36030 ft 424 kts 276°
2026-04-23 12:33 41.02875 -99.35016 36030 ft 424 kts 276°
2026-04-23 12:34 41.02993 -99.42839 36030 ft 424 kts 276°
2026-04-23 12:34 41.03106 -99.50645 36030 ft 424 kts 276°
2026-04-23 12:35 41.03214 -99.58459 36030 ft 424 kts 275°
2026-04-23 12:35 41.03317 -99.66278 36030 ft 424 kts 275°
2026-04-23 12:36 41.03414 -99.74087 36030 ft 424 kts 275°
2026-04-23 12:36 41.03533 -99.81907 36030 ft 424 kts 276°
2026-04-23 12:37 41.03634 -99.89717 36030 ft 425 kts 275°
2026-04-23 12:37 41.03706 -99.97534 36030 ft 425 kts 275°
2026-04-23 12:38 41.03769 -100.05364 36030 ft 425 kts 275°
2026-04-23 12:38 41.03829 -100.13180 36030 ft 425 kts 275°
2026-04-23 12:39 41.03890 -100.20999 36030 ft 425 kts 275°
2026-04-23 12:39 41.03804 -100.28836 36030 ft 426 kts 273°
2026-04-23 12:40 41.03653 -100.36668 36030 ft 426 kts 273°
2026-04-23 12:40 41.03530 -100.43189 36030 ft 426 kts 273°
2026-04-23 12:41 41.03381 -100.51033 36030 ft 426 kts 273°
2026-04-23 12:41 41.03230 -100.58865 36030 ft 426 kts 273°
2026-04-23 12:42 41.03076 -100.66706 36030 ft 426 kts 274°
2026-04-23 12:42 41.02979 -100.74542 36030 ft 426 kts 274°
2026-04-23 12:43 41.02851 -100.82377 36030 ft 426 kts 273°
2026-04-23 12:43 41.02706 -100.90220 36030 ft 426 kts 273°
2026-04-23 12:44 41.02550 -100.98057 36030 ft 426 kts 273°
2026-04-23 12:44 41.02386 -101.05891 36030 ft 426 kts 273°
2026-04-23 12:45 41.02217 -101.13732 36030 ft 426 kts 273°
2026-04-23 12:45 41.02043 -101.21515 36030 ft 426 kts 273°
2026-04-23 12:46 41.01863 -101.29348 36030 ft 426 kts 273°
2026-04-23 12:46 41.01677 -101.37196 36030 ft 426 kts 273°
2026-04-23 12:47 41.01486 -101.45023 36030 ft 426 kts 273°
2026-04-23 12:47 41.01290 -101.52875 36030 ft 426 kts 273°
2026-04-23 12:48 41.01114 -101.60701 36030 ft 426 kts 273°
2026-04-23 12:48 41.00922 -101.68552 36030 ft 426 kts 272°
2026-04-23 12:49 41.00701 -101.76390 36030 ft 426 kts 272°
2026-04-23 12:49 41.00470 -101.84230 36030 ft 426 kts 272°
2026-04-23 12:50 41.00236 -101.92065 36030 ft 426 kts 272°
2026-04-23 12:50 40.99884 -101.99911 36030 ft 430 kts 267°
2026-04-23 12:51 40.98744 -102.07673 36030 ft 432 kts 263°
2026-04-23 12:51 40.97455 -102.15454 36030 ft 433 kts 263°
2026-04-23 12:52 40.96162 -102.23224 36030 ft 433 kts 263°
2026-04-23 12:52 40.94862 -102.31000 36030 ft 433 kts 263°
2026-04-23 12:53 40.93557 -102.38770 36030 ft 433 kts 263°
2026-04-23 12:53 40.92267 -102.46533 36030 ft 432 kts 263°
2026-04-23 12:54 40.91009 -102.54300 36030 ft 432 kts 263°
2026-04-23 12:54 40.89720 -102.62065 36030 ft 433 kts 263°
2026-04-23 12:55 40.88416 -102.69823 36030 ft 433 kts 263°
2026-04-23 12:55 40.87102 -102.77590 36030 ft 433 kts 263°
2026-04-23 12:56 40.85843 -102.84993 36030 ft 433 kts 263°
2026-04-23 12:56 40.84514 -102.92777 36030 ft 433 kts 262°
2026-04-23 12:57 40.83211 -103.00370 36030 ft 433 kts 262°
2026-04-23 12:57 40.81900 -103.08128 36030 ft 433 kts 263°
2026-04-23 12:58 40.80575 -103.15869 36030 ft 433 kts 262°
2026-04-23 12:58 40.79220 -103.23613 36030 ft 433 kts 262°
2026-04-23 12:59 40.77857 -103.31349 36030 ft 433 kts 262°
2026-04-23 12:59 40.76490 -103.39089 36030 ft 433 kts 262°
2026-04-23 13:00 40.75056 -103.46810 36030 ft 435 kts 258°
2026-04-23 13:00 40.73039 -103.54369 36030 ft 439 kts 254°
2026-04-23 13:01 40.70845 -103.61815 36030 ft 439 kts 255°
2026-04-23 13:01 40.68661 -103.69321 36030 ft 438 kts 255°
2026-04-23 13:02 40.66489 -103.76821 36030 ft 438 kts 255°
2026-04-23 13:02 40.64316 -103.84327 36030 ft 438 kts 255°
2026-04-23 13:03 40.62172 -103.91831 36030 ft 438 kts 255°
2026-04-23 13:03 40.60047 -103.99344 36030 ft 438 kts 255°
2026-04-23 13:04 40.57897 -104.06848 36030 ft 438 kts 255°
2026-04-23 13:04 40.55734 -104.14345 36030 ft 438 kts 255°
2026-04-23 13:05 40.53563 -104.21835 36030 ft 438 kts 255°
2026-04-23 13:05 40.51385 -104.29322 36030 ft 438 kts 255°
2026-04-23 13:06 40.48109 -104.40537 36030 ft 438 kts 255°
2026-04-23 13:07 40.45917 -104.48013 36030 ft 439 kts 255°
2026-04-23 13:07 40.43722 -104.55478 36030 ft 439 kts 254°
2026-04-23 13:08 40.41520 -104.62947 36030 ft 439 kts 254°
2026-04-23 13:08 40.39313 -104.70409 36030 ft 439 kts 254°
2026-04-23 13:09 40.37103 -104.77865 36030 ft 439 kts 254°
2026-04-23 13:09 40.34886 -104.85318 36030 ft 439 kts 254°
2026-04-23 13:10 40.32666 -104.92765 36030 ft 439 kts 254°
2026-04-23 13:10 40.30440 -105.00207 36030 ft 439 kts 254°
2026-04-23 13:11 40.28209 -105.07647 36030 ft 439 kts 254°
2026-04-23 13:11 40.25974 -105.15080 36030 ft 439 kts 254°
2026-04-23 13:12 40.23748 -105.22465 36030 ft 439 kts 254°
2026-04-23 13:12 40.21502 -105.29891 36030 ft 439 kts 254°
2026-04-23 13:13 40.19252 -105.37311 36030 ft 439 kts 254°
2026-04-23 13:13 40.16998 -105.44726 36030 ft 439 kts 254°
2026-04-23 13:14 40.14738 -105.52139 36030 ft 439 kts 254°
2026-04-23 13:14 40.12472 -105.59550 36030 ft 439 kts 254°
2026-04-23 13:15 40.10240 -105.66951 36030 ft 439 kts 254°
2026-04-23 13:15 40.07961 -105.74367 36030 ft 439 kts 253°
2026-04-23 13:16 40.05671 -105.81755 36030 ft 439 kts 253°
2026-04-23 13:16 40.03377 -105.89139 36030 ft 439 kts 253°
2026-04-23 13:17 40.01082 -105.96517 36030 ft 439 kts 253°
2026-04-23 13:17 39.98936 -106.03956 36030 ft 436 kts 257°
2026-04-23 13:18 39.97150 -106.11509 36030 ft 436 kts 258°
2026-04-23 13:18 39.95354 -106.19052 36030 ft 436 kts 258°
2026-04-23 13:19 39.93530 -106.26582 36030 ft 436 kts 258°
2026-04-23 13:19 39.91703 -106.34061 36030 ft 436 kts 258°
2026-04-23 13:20 39.89843 -106.41635 36030 ft 436 kts 258°
2026-04-23 13:20 39.88055 -106.49118 36030 ft 436 kts 258°
2026-04-23 13:21 39.86236 -106.56639 36030 ft 436 kts 258°
2026-04-23 13:21 39.84399 -106.64153 36030 ft 436 kts 258°
2026-04-23 13:22 39.82548 -106.71674 36030 ft 436 kts 258°
2026-04-23 13:22 39.80691 -106.79181 36030 ft 436 kts 257°
2026-04-23 13:23 39.78829 -106.86689 36030 ft 436 kts 257°
2026-04-23 13:23 39.76962 -106.94189 36030 ft 436 kts 257°
2026-04-23 13:24 39.75090 -107.01685 36030 ft 436 kts 257°
2026-04-23 13:24 39.73224 -107.09133 36030 ft 436 kts 257°
2026-04-23 13:25 39.71342 -107.16622 36030 ft 436 kts 257°
2026-04-23 13:25 39.69454 -107.24110 36030 ft 436 kts 257°
2026-04-23 13:26 39.67562 -107.31595 36030 ft 436 kts 257°
2026-04-23 13:26 39.65665 -107.39075 36030 ft 436 kts 257°
2026-04-23 13:27 39.63763 -107.46551 36030 ft 436 kts 257°
2026-04-23 13:27 39.61856 -107.54026 36030 ft 436 kts 257°
2026-04-23 13:28 39.59954 -107.61493 36030 ft 436 kts 258°
2026-04-23 13:28 39.58064 -107.68970 36030 ft 436 kts 257°
2026-04-23 13:29 39.56138 -107.76429 36030 ft 437 kts 257°
2026-04-23 13:29 39.54199 -107.83885 36030 ft 437 kts 257°
2026-04-23 13:30 39.52258 -107.91335 36030 ft 437 kts 257°
2026-04-23 13:30 39.50055 -107.98696 36030 ft 442 kts 249°
2026-04-23 13:31 39.46782 -108.05517 36031 ft 449 kts 240°
2026-04-23 13:31 39.43030 -108.12003 36030 ft 451 kts 238°
2026-04-23 13:32 39.39241 -108.18469 36030 ft 451 kts 238°
2026-04-23 13:32 39.36095 -108.23836 36030 ft 451 kts 238°
2026-04-23 13:33 39.32307 -108.30289 36030 ft 451 kts 238°
2026-04-23 13:33 39.28526 -108.36743 36030 ft 450 kts 239°
2026-04-23 13:34 39.24773 -108.43219 36030 ft 451 kts 239°
2026-04-23 13:34 39.21000 -108.49674 36030 ft 451 kts 239°
2026-04-23 13:35 39.17219 -108.56111 36030 ft 451 kts 238°
2026-04-23 13:35 39.13425 -108.62549 36030 ft 451 kts 238°
2026-04-23 13:36 39.09628 -108.68978 36030 ft 451 kts 238°
2026-04-23 13:36 39.05828 -108.75399 36030 ft 451 kts 238°
2026-04-23 13:37 39.02025 -108.81809 36030 ft 451 kts 238°
2026-04-23 13:37 38.98217 -108.88216 36030 ft 451 kts 238°
2026-04-23 13:38 38.94405 -108.94617 36030 ft 451 kts 238°
2026-04-23 13:38 38.90591 -109.01008 36030 ft 451 kts 238°
2026-04-23 13:39 38.86771 -109.07398 36029 ft 451 kts 238°
2026-04-23 13:39 38.82948 -109.13780 36030 ft 451 kts 238°
2026-04-23 13:40 38.79148 -109.20110 36030 ft 451 kts 238°
2026-04-23 13:40 38.75318 -109.26479 36030 ft 451 kts 238°
2026-04-23 13:41 38.71484 -109.32841 36030 ft 451 kts 238°
2026-04-23 13:41 38.67649 -109.39192 36030 ft 451 kts 238°
2026-04-23 13:42 38.63809 -109.45541 36030 ft 451 kts 238°
2026-04-23 13:42 38.59965 -109.51883 36030 ft 451 kts 238°
2026-04-23 13:43 38.56116 -109.58221 36030 ft 451 kts 238°
2026-04-23 13:43 38.52266 -109.64547 36030 ft 451 kts 238°
2026-04-23 13:44 38.48411 -109.70871 36030 ft 451 kts 238°
2026-04-23 13:44 38.44577 -109.77209 36030 ft 451 kts 238°
2026-04-23 13:45 38.40712 -109.83517 36030 ft 451 kts 238°
2026-04-23 13:45 38.36839 -109.89814 36030 ft 451 kts 238°
2026-04-23 13:46 38.32965 -109.96100 36030 ft 451 kts 238°
2026-04-23 13:46 38.29120 -110.02422 36030 ft 449 kts 240°
2026-04-23 13:47 38.25990 -110.09157 36030 ft 443 kts 248°
2026-04-23 13:47 38.23117 -110.16086 36030 ft 443 kts 248°
2026-04-23 13:48 38.20226 -110.23018 36030 ft 443 kts 248°
2026-04-23 13:48 38.17328 -110.29937 36030 ft 443 kts 248°
2026-04-23 13:49 38.14425 -110.36849 36030 ft 443 kts 248°
2026-04-23 13:49 38.11528 -110.43763 36030 ft 443 kts 248°
2026-04-23 13:50 38.08663 -110.50689 36030 ft 443 kts 248°
2026-04-23 13:50 38.05772 -110.57602 36030 ft 443 kts 248°
2026-04-23 13:51 38.02869 -110.64505 36030 ft 443 kts 248°
2026-04-23 13:51 37.99961 -110.71397 36030 ft 443 kts 248°
2026-04-23 13:52 37.97046 -110.78286 36030 ft 443 kts 248°
2026-04-23 13:52 37.94126 -110.85172 36030 ft 443 kts 248°
2026-04-23 13:53 37.91202 -110.92052 36030 ft 444 kts 247°
2026-04-23 13:53 37.88274 -110.98927 36030 ft 444 kts 247°
2026-04-23 13:54 37.85342 -111.05795 36030 ft 444 kts 247°
2026-04-23 13:54 37.82405 -111.12659 36030 ft 444 kts 247°
2026-04-23 13:55 37.79483 -111.19468 36026 ft 444 kts 247°
2026-04-23 13:55 37.78008 -111.22926 36048 ft 432 kts 247°
2026-04-23 13:55 37.76635 -111.26128 36026 ft 408 kts 246°
2026-04-23 13:55 37.75311 -111.29196 36039 ft 391 kts 247°
2026-04-23 13:56 37.74025 -111.32179 36050 ft 383 kts 247°
2026-04-23 13:56 37.71499 -111.38029 36073 ft 377 kts 247°
2026-04-23 13:57 37.68981 -111.43856 36079 ft 379 kts 247°
2026-04-23 13:57 37.66456 -111.49690 36084 ft 379 kts 247°
2026-04-23 13:58 37.63950 -111.55541 36087 ft 379 kts 247°
2026-04-23 13:58 37.61419 -111.61382 36088 ft 379 kts 247°
2026-04-23 13:59 37.58875 -111.67209 36089 ft 379 kts 247°
2026-04-23 13:59 37.56325 -111.73034 36090 ft 379 kts 247°
2026-04-23 14:00 37.54205 -111.77873 36091 ft 379 kts 247°
2026-04-23 14:00 37.51220 -111.84677 36092 ft 379 kts 247°
2026-04-23 14:01 37.48333 -111.90288 36093 ft 384 kts 240°
2026-04-23 14:01 37.45147 -111.95680 36093 ft 384 kts 240°
2026-04-23 14:02 37.41968 -112.01080 36090 ft 384 kts 240°
2026-04-23 14:02 37.38796 -112.06475 36091 ft 383 kts 240°
2026-04-23 14:03 37.35640 -112.11855 36090 ft 382 kts 240°
2026-04-23 14:03 37.32483 -112.17226 36093 ft 382 kts 240°
2026-04-23 14:04 37.29346 -112.22553 36101 ft 381 kts 240°
2026-04-23 14:04 37.26195 -112.27899 36101 ft 381 kts 240°
2026-04-23 14:05 37.23070 -112.33260 36102 ft 380 kts 241°
2026-04-23 14:05 37.19945 -112.38605 36102 ft 380 kts 241°
2026-04-23 14:06 37.16797 -112.43931 36097 ft 380 kts 240°
2026-04-23 14:06 37.13644 -112.49244 36098 ft 379 kts 240°
2026-04-23 14:07 37.10473 -112.54581 36099 ft 379 kts 240°
2026-04-23 14:07 37.05751 -112.62521 36102 ft 378 kts 241°
2026-04-23 14:08 37.02625 -112.67769 36106 ft 378 kts 240°
2026-04-23 14:08 36.99475 -112.73043 36108 ft 378 kts 240°
2026-04-23 14:09 36.96323 -112.78310 36110 ft 378 kts 240°
2026-04-23 14:09 36.93176 -112.83564 36110 ft 377 kts 240°
2026-04-23 14:10 36.90028 -112.88810 36110 ft 377 kts 240°
2026-04-23 14:10 36.86876 -112.94058 36110 ft 377 kts 240°
2026-04-23 14:11 36.83739 -112.99308 36110 ft 377 kts 241°
2026-04-23 14:11 36.80623 -113.04574 36106 ft 377 kts 241°
2026-04-23 14:12 36.77490 -113.09816 36102 ft 376 kts 240°
2026-04-23 14:12 36.74346 -113.15025 36098 ft 376 kts 240°
2026-04-23 14:13 36.71197 -113.20228 36093 ft 376 kts 240°
2026-04-23 14:13 36.68047 -113.25423 36089 ft 376 kts 240°
2026-04-23 14:14 36.64895 -113.30617 36085 ft 376 kts 240°
2026-04-23 14:14 36.61754 -113.35820 36081 ft 375 kts 241°
2026-04-23 14:15 36.58753 -113.41115 36078 ft 374 kts 242°
2026-04-23 14:15 36.55762 -113.46397 36076 ft 373 kts 242°
2026-04-23 14:16 36.52766 -113.51660 36074 ft 373 kts 242°
2026-04-23 14:16 36.49762 -113.56923 36073 ft 373 kts 242°
2026-04-23 14:17 36.46777 -113.62142 36065 ft 373 kts 242°
2026-04-23 14:17 36.43778 -113.67378 36057 ft 371 kts 242°
2026-04-23 14:18 36.40806 -113.72618 36057 ft 371 kts 242°
2026-04-23 14:18 36.37827 -113.77855 36058 ft 371 kts 242°
2026-04-23 14:19 36.34843 -113.83072 36059 ft 371 kts 242°
2026-04-23 14:19 36.31849 -113.88290 36055 ft 371 kts 241°
2026-04-23 14:20 36.28854 -113.93496 36055 ft 370 kts 241°
2026-04-23 14:20 36.25881 -113.98698 36050 ft 370 kts 242°
2026-04-23 14:21 36.22895 -114.03893 36049 ft 370 kts 241°
2026-04-23 14:21 36.19896 -114.09073 36040 ft 370 kts 241°
2026-04-23 14:22 36.16892 -114.14247 36033 ft 370 kts 241°
2026-04-23 14:22 36.14395 -114.18542 36033 ft 370 kts 241°
2026-04-23 14:23 36.11387 -114.23713 36033 ft 370 kts 241°
2026-04-23 14:23 36.08354 -114.28865 36032 ft 372 kts 239°
2026-04-23 14:24 36.04953 -114.33722 36032 ft 375 kts 235°
2026-04-23 14:24 36.01438 -114.38489 36033 ft 375 kts 236°
2026-04-23 14:25 35.97950 -114.43268 36034 ft 374 kts 236°
2026-04-23 14:25 35.94481 -114.48038 36047 ft 373 kts 236°
2026-04-23 14:26 35.91010 -114.52814 36053 ft 374 kts 236°
2026-04-23 14:26 35.87551 -114.57591 36054 ft 373 kts 237°
2026-04-23 14:27 35.84120 -114.62388 36052 ft 373 kts 236°
2026-04-23 14:27 35.80654 -114.67161 36054 ft 374 kts 236°
2026-04-23 14:28 35.77173 -114.71931 36054 ft 374 kts 236°
2026-04-23 14:28 35.73693 -114.76690 36053 ft 373 kts 236°
2026-04-23 14:29 35.70217 -114.81438 36051 ft 374 kts 236°
2026-04-23 14:29 35.66739 -114.86189 36049 ft 374 kts 236°
2026-04-23 14:30 35.63275 -114.90951 36056 ft 374 kts 236°
2026-04-23 14:30 35.59799 -114.95700 36058 ft 374 kts 236°
2026-04-23 14:31 35.56317 -115.00445 36057 ft 374 kts 236°
2026-04-23 14:31 35.52833 -115.05187 36055 ft 374 kts 236°
2026-04-23 14:32 35.49339 -115.09912 36053 ft 375 kts 235°
2026-04-23 14:32 35.45756 -115.14561 36053 ft 375 kts 235°
2026-04-23 14:33 35.42178 -115.19209 36050 ft 375 kts 235°
2026-04-23 14:33 35.38626 -115.23826 36052 ft 375 kts 235°
2026-04-23 14:34 35.35049 -115.28475 36053 ft 375 kts 235°
2026-04-23 14:34 35.31505 -115.33148 36053 ft 374 kts 235°
2026-04-23 14:35 35.27941 -115.37792 36055 ft 374 kts 235°
2026-04-23 14:35 35.24367 -115.42420 36060 ft 374 kts 235°
2026-04-23 14:36 35.20795 -115.47037 36062 ft 373 kts 235°
2026-04-23 14:36 35.17224 -115.51646 36065 ft 373 kts 235°
2026-04-23 14:37 35.13630 -115.56283 36071 ft 373 kts 235°
2026-04-23 14:37 35.10075 -115.60848 36077 ft 373 kts 234°
2026-04-23 14:38 35.06488 -115.65423 36080 ft 373 kts 234°
2026-04-23 14:38 35.02899 -115.69997 36083 ft 373 kts 234°
2026-04-23 14:39 34.99320 -115.74568 36085 ft 372 kts 235°
2026-04-23 14:39 34.95765 -115.79147 36088 ft 372 kts 235°
2026-04-23 14:40 34.92184 -115.83709 36092 ft 372 kts 234°
2026-04-23 14:40 34.88597 -115.88259 36095 ft 372 kts 234°
2026-04-23 14:41 34.85007 -115.92805 36099 ft 372 kts 234°
2026-04-23 14:41 34.81423 -115.97339 36103 ft 372 kts 234°
2026-04-23 14:42 34.77835 -116.01876 36110 ft 372 kts 234°
2026-04-23 14:42 34.74258 -116.06425 36116 ft 372 kts 234°
2026-04-23 14:43 34.70679 -116.10974 36119 ft 371 kts 234°
2026-04-23 14:43 34.67105 -116.15510 36123 ft 372 kts 234°
2026-04-23 14:44 34.63540 -116.20047 36122 ft 371 kts 235°
2026-04-23 14:44 34.59984 -116.24606 35652 ft 371 kts 234°
2026-04-23 14:45 34.58229 -116.26836 34962 ft 371 kts 234°
2026-04-23 14:45 34.56419 -116.29129 34221 ft 372 kts 234°
2026-04-23 14:45 34.54651 -116.31364 33556 ft 372 kts 234°
2026-04-23 14:45 34.52867 -116.33615 33016 ft 369 kts 234°
2026-04-23 14:46 34.51098 -116.35846 32485 ft 366 kts 234°
2026-04-23 14:46 34.49319 -116.38089 31956 ft 363 kts 233°
2026-04-23 14:46 34.47598 -116.40255 31449 ft 360 kts 234°
2026-04-23 14:46 34.45865 -116.42439 30938 ft 358 kts 233°
2026-04-23 14:47 34.44144 -116.44607 30436 ft 357 kts 233°
2026-04-23 14:47 34.42550 -116.46866 29941 ft 350 kts 240°
2026-04-23 14:47 34.41216 -116.49305 29448 ft 345 kts 244°
2026-04-23 14:47 34.40034 -116.51822 28953 ft 342 kts 246°
2026-04-23 14:48 34.38950 -116.54379 28385 ft 342 kts 248°
2026-04-23 14:48 34.37887 -116.56957 27983 ft 342 kts 248°
2026-04-23 14:48 34.36811 -116.59560 27734 ft 350 kts 248°
2026-04-23 14:48 34.35707 -116.62230 27486 ft 362 kts 247°
2026-04-23 14:49 34.34566 -116.64988 27238 ft 370 kts 247°
2026-04-23 14:49 34.33424 -116.67760 26900 ft 365 kts 247°
2026-04-23 14:49 34.32319 -116.70501 26417 ft 361 kts 248°
2026-04-23 14:49 34.31239 -116.73227 25915 ft 358 kts 248°
2026-04-23 14:50 34.30158 -116.75931 25396 ft 356 kts 248°
2026-04-23 14:50 34.29076 -116.78620 24886 ft 354 kts 248°
2026-04-23 14:50 34.27999 -116.81289 24384 ft 352 kts 248°
2026-04-23 14:50 34.26925 -116.83945 23883 ft 351 kts 248°
2026-04-23 14:51 34.25859 -116.86580 23383 ft 349 kts 248°
2026-04-23 14:51 34.24793 -116.89210 22884 ft 347 kts 248°
2026-04-23 14:51 34.23735 -116.91824 22388 ft 345 kts 248°
2026-04-23 14:51 34.22680 -116.94426 21894 ft 344 kts 248°
2026-04-23 14:52 34.21635 -116.97008 21402 ft 342 kts 248°
2026-04-23 14:52 34.20721 -116.99639 20911 ft 338 kts 253°
2026-04-23 14:52 34.19993 -117.02318 20534 ft 333 kts 255°
2026-04-23 14:52 34.19308 -117.04960 20281 ft 327 kts 255°
2026-04-23 14:53 34.18610 -117.07567 20030 ft 327 kts 255°
2026-04-23 14:53 34.17902 -117.10185 19781 ft 330 kts 254°
2026-04-23 14:53 34.17186 -117.12824 19530 ft 330 kts 255°
2026-04-23 14:53 34.16473 -117.15453 19280 ft 328 kts 255°
2026-04-23 14:54 34.15763 -117.18066 19029 ft 327 kts 254°
2026-04-23 14:54 34.15061 -117.20629 18676 ft 325 kts 254°
2026-04-23 14:54 34.14352 -117.23204 18235 ft 322 kts 254°
2026-04-23 14:54 34.13646 -117.25762 17788 ft 320 kts 254°
2026-04-23 14:55 34.12932 -117.28340 17332 ft 319 kts 254°
2026-04-23 14:55 34.12241 -117.30838 16888 ft 317 kts 254°
2026-04-23 14:55 34.11545 -117.33354 16437 ft 316 kts 254°
2026-04-23 14:55 34.10850 -117.35867 15986 ft 315 kts 254°
2026-04-23 14:56 34.10166 -117.38377 15535 ft 314 kts 255°
2026-04-23 14:56 34.09546 -117.40892 15091 ft 313 kts 256°
2026-04-23 14:56 34.08930 -117.43403 14653 ft 311 kts 256°
2026-04-23 14:56 34.08310 -117.45895 14247 ft 310 kts 256°
2026-04-23 14:57 34.07694 -117.48354 14119 ft 302 kts 256°
2026-04-23 14:57 34.07062 -117.50729 13999 ft 294 kts 253°
2026-04-23 14:57 34.06311 -117.52978 13777 ft 282 kts 250°
2026-04-23 14:57 34.05507 -117.55125 13242 ft 283 kts 249°
2026-04-23 14:58 34.04687 -117.57282 12922 ft 281 kts 250°
2026-04-23 14:58 34.03893 -117.59420 12626 ft 278 kts 250°
2026-04-23 14:58 34.03117 -117.61551 12270 ft 278 kts 250°
2026-04-23 14:58 34.02343 -117.63690 11914 ft 278 kts 251°
2026-04-23 14:59 34.01572 -117.65824 11533 ft 279 kts 250°
2026-04-23 14:59 34.00834 -117.67994 11135 ft 279 kts 255°
2026-04-23 14:59 34.00399 -117.70265 10728 ft 278 kts 264°
2026-04-23 14:59 34.00161 -117.72583 10334 ft 279 kts 266°
2026-04-23 15:00 34.00014 -117.74921 9933 ft 280 kts 269°
2026-04-23 15:00 33.99877 -117.77265 9528 ft 283 kts 266°
2026-04-23 15:00 33.99651 -117.79633 9117 ft 285 kts 264°
2026-04-23 15:00 33.99365 -117.82008 8723 ft 287 kts 262°
2026-04-23 15:01 33.99087 -117.84347 8439 ft 284 kts 265°
2026-04-23 15:01 33.98867 -117.86704 8126 ft 283 kts 265°
2026-04-23 15:01 33.98658 -117.89054 7802 ft 282 kts 265°
2026-04-23 15:01 33.98443 -117.91389 7480 ft 280 kts 265°
2026-04-23 15:02 33.98289 -117.92964 7262 ft 280 kts 265°
2026-04-23 15:02 33.97984 -117.96036 6820 ft 278 kts 265°
2026-04-23 15:02 33.97754 -117.98344 6498 ft 277 kts 264°
2026-04-23 15:02 33.97523 -118.00644 6162 ft 276 kts 264°
2026-04-23 15:03 33.97306 -118.02931 5816 ft 276 kts 265°
2026-04-23 15:03 33.97095 -118.05240 5437 ft 278 kts 265°
2026-04-23 15:03 33.96870 -118.07553 5064 ft 278 kts 264°
2026-04-23 15:03 33.96644 -118.09814 4691 ft 265 kts 264°
2026-04-23 15:04 33.96427 -118.11961 4351 ft 252 kts 264°
2026-04-23 15:04 33.96219 -118.14006 4039 ft 239 kts 264°
2026-04-23 15:04 33.96022 -118.15938 3724 ft 226 kts 263°
2026-04-23 15:04 33.95835 -118.17760 3446 ft 215 kts 263°
2026-04-23 15:05 33.95654 -118.19535 3163 ft 209 kts 263°
2026-04-23 15:05 33.95480 -118.21235 2880 ft 200 kts 263°
2026-04-23 15:05 33.95314 -118.22859 2612 ft 191 kts 263°
2026-04-23 15:05 33.95155 -118.24414 2359 ft 183 kts 263°
2026-04-23 15:06 33.95001 -118.25918 2121 ft 178 kts 263°
2026-04-23 15:06 33.94853 -118.27365 1891 ft 171 kts 263°
2026-04-23 15:06 33.94711 -118.28749 1698 ft 164 kts 263°
2026-04-23 15:06 33.94574 -118.30092 1460 ft 160 kts 263°
2026-04-23 15:07 33.94440 -118.31397 1247 ft 155 kts 263°
2026-04-23 15:07 33.94310 -118.32670 1046 ft 152 kts 263°
2026-04-23 15:07 33.94182 -118.33924 846 ft 150 kts 263°
2026-04-23 15:07 33.94056 -118.35173 641 ft 150 kts 263°
2026-04-23 15:08 33.93922 -118.36422 436 ft 151 kts 263°
2026-04-23 15:08 33.93796 -118.37674 246 ft 151 kts 264°
2026-04-23 15:08 33.93671 -118.38918 139 ft 144 kts 263°
2026-04-23 15:09 33.93531 -118.40446 135 ft 32 kts 283°
2026-04-23 15:09 33.93587 -118.40638 135 ft 21 kts 285°
2026-04-23 15:09 33.93589 -118.40787 135 ft 15 kts 264°
2026-04-23 15:09 33.93608 -118.40877 135 ft 11 kts 316°
2026-04-23 15:10 33.93656 -118.40905 135 ft 13 kts 349°
2026-04-23 15:10 33.93769 -118.40909 135 ft 12 kts 37°
2026-04-23 15:10 33.93794 -118.40816 134 ft 12 kts 82°
2026-04-23 15:10 33.93804 -118.40721 134 ft 11 kts 83°
2026-04-23 15:11 33.93814 -118.40629 134 ft 11 kts 83°
2026-04-23 15:11 33.93823 -118.40541 134 ft 11 kts 83°
2026-04-23 15:11 33.93832 -118.40448 134 ft 11 kts 83°
2026-04-23 15:11 33.93841 -118.40358 134 ft 11 kts 83°
2026-04-23 15:12 33.93847 -118.40299 134 ft 10 kts 83°
2026-04-23 15:12 33.93855 -118.40216 134 ft 10 kts 83°
2026-04-23 15:12 33.93863 -118.40136 134 ft 9 kts 83°
2026-04-23 15:12 33.93871 -118.40057 134 ft 9 kts 83°
2026-04-23 15:13 33.93879 -118.39982 135 ft 11 kts 82°
2026-04-23 15:13 33.93889 -118.39887 135 ft 11 kts 83°
2026-04-23 15:13 33.93929 -118.39818 135 ft 11 kts 358°
2026-04-23 15:13 33.94003 -118.39833 135 ft 11 kts 352°
2026-04-23 15:14 33.94075 -118.39834 135 ft 10 kts
2026-04-23 15:14 33.94144 -118.39840 135 ft 10 kts 353°
2026-04-23 15:14 33.94167 -118.39870 134 ft 6 kts 259°
2026-04-23 15:14 33.94164 -118.39896 134 ft 2 kts 263°
2026-04-23 15:15 33.94163 -118.39909 134 ft 0 kts 263°
2026-04-23 15:15 33.94163 -118.39910 134 ft 0 kts 263°